Location: Napier
(39.4830°S, 176.9170°E)
Time: 18:32:27
(UTC+13:00)

CZ-4B DEB - Visible Passes

Search period start: 26 November 2020 00:00
Search period end: 06 December 2020 00:00
Orbit: 840 x 862 km, 99.1° (Epoch: 25 November)

Date Brightness Start Highest point End Pass type
(mag) Time Alt. Az. Time Alt. Az. Time Alt. Az.
26 Nov 7.2 04:57:09 10° ENE 05:01:08 21° ESE 05:05:08 10° SSE visible
26 Nov 7.5 20:40:54 10° SSW 20:44:22 17° WSW 20:47:49 10° W visible
27 Nov 7.4 04:46:13 10° E 04:49:34 16° ESE 04:52:55 10° SSE visible
28 Nov 7.6 04:35:34 10° E 04:38:00 13° ESE 04:40:27 10° SSE visible
29 Nov 7.9 04:26:04 10° ESE 04:26:29 10° SE 04:26:53 10° SE visible
03 Dec 7.9 21:00:39 10° SW 21:02:36 12° WSW 21:04:33 10° WSW visible
04 Dec 7.1 05:03:35 10° ENE 05:07:51 23° ESE 05:12:08 10° SSE visible
05 Dec 7.2 04:52:33 10° ENE 04:56:15 19° ESE 04:59:59 10° SSE visible
